TimeMDT,TemperatureF,Dew PointF,Humidity,Sea Level PressureIn,VisibilityMPH,Wind Direction,Wind SpeedMPH,Gust SpeedMPH,PrecipitationIn,Events,Conditions,WindDirDegrees,DateUTC
12:58 AM,53.6,39.7,59,29.94,10.0,NNW,5.8,-,N/A,,Clear,340,2013-04-02 06:58:00
1:58 AM,47.8,37.4,67,29.96,10.0,NW,4.6,-,N/A,,Clear,320,2013-04-02 07:58:00
2:58 AM,45.0,37.0,74,29.97,10.0,WNW,8.1,-,N/A,,Clear,300,2013-04-02 08:58:00
3:58 AM,42.4,36.5,79,29.98,10.0,West,5.8,-,N/A,,Clear,280,2013-04-02 09:58:00
4:58 AM,42.6,35.8,77,29.98,10.0,NW,10.4,-,N/A,,Clear,310,2013-04-02 10:58:00
5:58 AM,41.9,35.4,78,29.99,10.0,NW,10.4,-,N/A,,Clear,310,2013-04-02 11:58:00
6:58 AM,43.7,36.0,74,30.01,10.0,NW,12.7,-,N/A,,Clear,310,2013-04-02 12:58:00
7:58 AM,44.1,35.6,72,30.03,10.0,NW,13.8,-,N/A,,Clear,320,2013-04-02 13:58:00
8:58 AM,49.1,37.4,64,30.06,10.0,NNW,17.3,23.0,N/A,,Clear,330,2013-04-02 14:58:00
9:58 AM,55.2,37.8,52,30.06,10.0,NW,25.3,-,N/A,,Clear,310,2013-04-02 15:58:00
10:58 AM,58.6,37.4,45,30.06,10.0,NW,21.9,-,N/A,,Clear,320,2013-04-02 16:58:00
11:58 AM,61.3,37.4,41,30.06,10.0,NW,19.6,-,N/A,,Clear,320,2013-04-02 17:58:00
12:58 PM,64.0,36.7,36,30.04,10.0,NW,19.6,27.6,N/A,,Clear,310,2013-04-02 18:58:00
1:58 PM,66.0,36.7,34,30.04,10.0,NW,17.3,24.2,N/A,,Clear,320,2013-04-02 19:58:00
2:58 PM,67.3,34.3,30,30.02,10.0,NNW,19.6,27.6,N/A,,Clear,330,2013-04-02 20:58:00
3:58 PM,69.4,32.0,25,30.00,10.0,NW,18.4,29.9,N/A,,Clear,310,2013-04-02 21:58:00
4:58 PM,69.8,32.9,26,29.99,10.0,NW,18.4,26.5,N/A,,Clear,310,2013-04-02 22:58:00
5:58 PM,69.6,30.6,23,29.99,10.0,NNW,17.3,24.2,N/A,,Clear,330,2013-04-02 23:58:00
6:58 PM,68.9,30.0,24,29.99,10.0,NNW,17.3,-,N/A,,Clear,330,2013-04-03 00:58:00
7:58 PM,65.7,30.2,27,29.99,10.0,NNW,12.7,-,N/A,,Clear,340,2013-04-03 01:58:00
8:58 PM,60.1,30.2,32,30.01,10.0,North,10.4,-,N/A,,Clear,350,2013-04-03 02:58:00
9:58 PM,56.5,30.7,38,30.02,10.0,NNW,8.1,-,N/A,,Clear,340,2013-04-03 03:58:00
10:58 PM,51.3,30.2,44,30.02,10.0,NNW,4.6,-,N/A,,Clear,330,2013-04-03 04:58:00
11:58 PM,45.7,28.9,52,30.02,10.0,West,4.6,-,N/A,,Clear,280,2013-04-03 05:58:00